Mora, MN

7:34 AM CST on December 04, 2016 (GMT -0600)
Mora Municipal

Weather History for KJMR - December, 2012

Change the Weather History Date:

Saturday, December 8, 2012

  Actual Average Record
Temperature  
Mean Temperature 26 °F -  
Max Temperature 32 °F 25 °F 50 °F (1941)
Min Temperature 19 °F 7 °F -24 °F (1978)
Degree Days  
Heating Degree Days 40    
Moisture  
Dew Point 18 °F    
Average Humidity 76    
Maximum Humidity 86    
Minimum Humidity 64    
Precipitation  
Precipitation 0.00 in - - ()
Sea Level Pressure  
Sea Level Pressure 30.04 in    
Wind  
Wind Speed 2 mph (East)    
Max Wind Speed 6 mph    
Max Gust Speed -    
Visibility 10 miles    
Events Snow    
Averages and records for this station are not official NWS values.
T = Trace of Precipitation, MM = Missing Value Source: NWS Daily Summary

Daily Weather History Graph

Daily Weather History Graph

Search for Another Location

Airport or City:

Trip Planner

Search our weather history database for the weather conditions in past years. The results will help you decide how hot, cold, wet, or windy it might be!

Date:

Astronomy

Dec. 08, 2012 Rise Set
Actual Time 7:42 AM CST 4:28 PM CST
Civil Twilight 7:07 AM CST 5:02 PM CST
Nautical Twilight 6:30 AM CST 5:40 PM CST
Astronomical Twilight 5:54 AM CST 6:16 PM CST
Moon 1:53 AM CST (12/8) 1:10 PM CST (12/8)
Length of Visible Light 9h 54m
Length of Day
8h 46m
Waning Crescent, 28% of the Moon is Illuminated
Dec 8
Waning Crescent
Dec 13
New
Dec 19
First Quarter
Dec 28
Full
Jan 4
Last Quarter

Hourly Weather History & Observations

Time (CST) Temp. Windchill Dew Point Humidity Pressure Visibility Wind Dir Wind Speed Gust Speed Precip Events Conditions
12:02 AM 21.2 °F 16.4 °F 14.0 °F 74% 30.06 in 10.0 mi North 3.5 mph - N/A   Mostly Cloudy
12:21 AM 21.2 °F - 14.0 °F 74% 30.06 in 10.0 mi Calm Calm - N/A   Overcast
12:41 AM 21.2 °F 16.4 °F 14.0 °F 74% 30.05 in 10.0 mi North 3.5 mph - N/A   Overcast
1:02 AM 21.2 °F - 14.0 °F 74% 30.05 in 10.0 mi Calm Calm - N/A   Overcast
1:21 AM 21.2 °F - 14.0 °F 74% 30.05 in 10.0 mi Calm Calm - N/A   Overcast
1:42 AM 21.2 °F 16.4 °F 14.0 °F 74% 30.05 in 10.0 mi NNE 3.5 mph - N/A   Mostly Cloudy
2:01 AM 21.2 °F - 14.0 °F 74% 30.05 in 10.0 mi Calm Calm - N/A   Mostly Cloudy
2:22 AM 19.4 °F - 14.0 °F 80% 30.05 in 10.0 mi Calm Calm - N/A   Clear
3:01 AM 19.4 °F - 12.2 °F 74% 30.05 in 10.0 mi Calm Calm - N/A   Mostly Cloudy
3:21 AM 19.4 °F - 12.2 °F 74% 30.05 in 10.0 mi Calm Calm - N/A   Overcast
3:41 AM 19.4 °F - 12.2 °F 74% 30.05 in 10.0 mi Calm Calm - N/A   Overcast
4:02 AM 19.4 °F - 12.2 °F 74% 30.04 in 10.0 mi Calm Calm - N/A   Overcast
4:21 AM 19.4 °F - 12.2 °F 74% 30.05 in 10.0 mi Calm Calm - N/A   Overcast
4:41 AM 19.4 °F - 14.0 °F 80% 30.05 in 10.0 mi Calm Calm - N/A   Overcast
5:21 AM 19.4 °F - 14.0 °F 80% 30.05 in 10.0 mi Calm Calm - N/A Snow Light Snow
5:41 AM 19.4 °F - 14.0 °F 80% 30.05 in 10.0 mi Calm Calm - N/A Snow Light Snow
6:01 AM 19.4 °F - 14.0 °F 80% 30.05 in 10.0 mi Calm Calm - N/A   Overcast
6:21 AM 19.4 °F - 14.0 °F 80% 30.06 in 10.0 mi Calm Calm - N/A   Overcast
6:42 AM 19.4 °F - 14.0 °F 80% 30.06 in 10.0 mi Calm Calm - N/A Snow Light Snow
7:01 AM 19.4 °F - 14.0 °F 80% 30.06 in 10.0 mi Calm Calm - N/A Snow Light Snow
7:21 AM 19.4 °F 12.8 °F 14.0 °F 80% 30.06 in 10.0 mi East 4.6 mph - N/A Snow Light Snow
7:42 AM 19.4 °F 12.8 °F 14.0 °F 80% 30.05 in 10.0 mi East 4.6 mph - N/A   Overcast
8:01 AM 19.4 °F 14.3 °F 14.0 °F 80% 30.05 in 2.0 mi East 3.5 mph - N/A Snow Light Snow
8:22 AM 19.4 °F 14.3 °F 14.0 °F 80% 30.05 in 2.5 mi East 3.5 mph - N/A Snow Light Snow
8:41 AM 19.4 °F 14.3 °F 15.8 °F 86% 30.05 in 5.0 mi East 3.5 mph - N/A Snow Light Snow
9:02 AM 21.2 °F 13.6 °F 15.8 °F 80% 30.05 in 10.0 mi East 5.8 mph - N/A Snow Light Snow
9:21 AM 21.2 °F - 17.6 °F 86% 30.05 in 10.0 mi Calm Calm - N/A   Overcast
9:42 AM 21.2 °F 16.4 °F 17.6 °F 86% 30.06 in 10.0 mi ESE 3.5 mph - N/A   Overcast
10:01 AM 23.0 °F - 17.6 °F 80% 30.06 in 10.0 mi Calm Calm - N/A   Overcast
10:21 AM 24.8 °F - 19.4 °F 80% 30.06 in 10.0 mi Calm Calm - N/A   Overcast
10:42 AM 24.8 °F - 17.6 °F 74% 30.07 in 10.0 mi Calm Calm - N/A   Overcast
11:01 AM 26.6 °F - 19.4 °F 74% 30.07 in 10.0 mi Calm Calm - N/A   Overcast
11:22 AM 26.6 °F - 21.2 °F 80% 30.06 in 10.0 mi Calm Calm - N/A   Overcast
11:41 AM 26.6 °F - 19.4 °F 74% 30.06 in 10.0 mi Calm Calm - N/A   Overcast
12:01 PM 28.4 °F - 21.2 °F 74% 30.05 in 10.0 mi Calm Calm - N/A   Overcast
12:21 PM 30.2 °F - 21.2 °F 69% 30.04 in 10.0 mi Calm Calm - N/A   Overcast
12:41 PM 32.0 °F - 23.0 °F 69% 30.03 in 10.0 mi Calm Calm - N/A   Mostly Cloudy
1:01 PM 32.0 °F 28.7 °F 21.2 °F 64% 30.02 in 10.0 mi ESE 3.5 mph - N/A   Scattered Clouds
1:21 PM 32.0 °F 27.5 °F 21.2 °F 64% 30.02 in 10.0 mi South 4.6 mph - N/A   Clear
1:42 PM 32.0 °F 27.5 °F 21.2 °F 64% 30.02 in 10.0 mi South 4.6 mph - N/A   Clear
2:01 PM 32.0 °F 27.5 °F 21.2 °F 64% 30.02 in 10.0 mi South 4.6 mph - N/A   Clear
2:22 PM 32.0 °F 27.5 °F 21.2 °F 64% 30.02 in 10.0 mi South 4.6 mph - N/A   Clear
2:42 PM 32.0 °F 26.4 °F 21.2 °F 64% 30.02 in 10.0 mi South 5.8 mph - N/A   Clear
3:02 PM 32.0 °F 28.7 °F 21.2 °F 64% 30.03 in 10.0 mi SSE 3.5 mph - N/A   Clear
3:21 PM 32.0 °F 27.5 °F 21.2 °F 64% 30.03 in 10.0 mi SSE 4.6 mph - N/A   Clear
3:42 PM 32.0 °F - 21.2 °F 64% 30.03 in 10.0 mi Calm Calm - N/A   Clear
4:02 PM 30.2 °F - 21.2 °F 69% 30.02 in 10.0 mi Calm Calm - N/A   Clear
4:21 PM 28.4 °F 24.6 °F 21.2 °F 74% 30.01 in 10.0 mi East 3.5 mph - N/A   Clear
4:41 PM 26.6 °F 22.6 °F 19.4 °F 74% 30.01 in 10.0 mi East 3.5 mph - N/A   Clear
5:01 PM 26.6 °F 22.6 °F 21.2 °F 80% 30.01 in 10.0 mi ESE 3.5 mph - N/A   Clear
5:22 PM 26.6 °F 21.2 °F 21.2 °F 80% 30.01 in 10.0 mi East 4.6 mph - N/A   Clear
5:41 PM 26.6 °F - 21.2 °F 80% 30.02 in 10.0 mi Calm Calm - N/A   Clear
6:02 PM 26.6 °F - 21.2 °F 80% 30.03 in 10.0 mi Calm Calm - N/A   Clear
6:21 PM 26.6 °F 22.6 °F 21.2 °F 80% 30.03 in 10.0 mi East 3.5 mph - N/A   Clear
6:41 PM 26.6 °F - 21.2 °F 80% 30.04 in 10.0 mi Calm Calm - N/A   Clear
7:02 PM 26.6 °F - 21.2 °F 80% 30.04 in 10.0 mi Calm Calm - N/A   Clear
7:21 PM 26.6 °F - 21.2 °F 80% 30.04 in 10.0 mi Calm Calm - N/A   Clear
7:42 PM 26.6 °F 22.6 °F 21.2 °F 80% 30.03 in 10.0 mi East 3.5 mph - N/A   Clear
8:01 PM 26.6 °F 22.6 °F 21.2 °F 80% 30.04 in 10.0 mi East 3.5 mph - N/A   Clear
8:21 PM 26.6 °F 22.6 °F 21.2 °F 80% 30.03 in 10.0 mi East 3.5 mph - N/A   Clear
8:41 PM 26.6 °F 22.6 °F 21.2 °F 80% 30.03 in 10.0 mi East 3.5 mph - N/A   Clear
9:01 PM 26.6 °F 22.6 °F 21.2 °F 80% 30.04 in 10.0 mi East 3.5 mph - N/A   Clear
9:22 PM 26.6 °F 22.6 °F 21.2 °F 80% 30.03 in 10.0 mi East 3.5 mph - N/A   Clear
9:41 PM 26.6 °F - 21.2 °F 80% 30.03 in 10.0 mi Calm Calm - N/A   Scattered Clouds
10:02 PM 26.6 °F 22.6 °F 21.2 °F 80% 30.04 in 10.0 mi East 3.5 mph - N/A   Scattered Clouds
10:21 PM 26.6 °F 22.6 °F 21.2 °F 80% 30.04 in 10.0 mi East 3.5 mph - N/A   Scattered Clouds
10:42 PM 28.4 °F 24.6 °F 21.2 °F 74% 30.04 in 10.0 mi East 3.5 mph - N/A   Mostly Cloudy
11:02 PM 28.4 °F 24.6 °F 21.2 °F 74% 30.05 in 10.0 mi East 3.5 mph - N/A   Mostly Cloudy
11:21 PM 26.6 °F 20.0 °F 21.2 °F 80% 30.05 in 10.0 mi ENE 5.8 mph - N/A   Mostly Cloudy
11:42 PM 28.4 °F 24.6 °F 21.2 °F 74% 30.05 in 10.0 mi East 3.5 mph - N/A   Overcast